TimeEST,TemperatureF,Dew PointF,Humidity,Sea Level PressureIn,VisibilityMPH,Wind Direction,Wind SpeedMPH,Gust SpeedMPH,PrecipitationIn,Events,Conditions,WindDirDegrees,DateUTC
12:53 AM,75.9,73.0,91,30.06,10.0,SSE,4.6,-,N/A,,Clear,150,2012-12-12 05:53:00
1:53 AM,75.9,73.0,91,30.06,10.0,SSE,5.8,-,N/A,,Clear,160,2012-12-12 06:53:00
2:53 AM,75.9,73.0,91,30.06,10.0,South,3.5,-,N/A,,Partly Cloudy,170,2012-12-12 07:53:00
3:25 AM,75.2,73.4,94,30.06,10.0,SSE,6.9,-,N/A,,Mostly Cloudy,160,2012-12-12 08:25:00
3:38 AM,77.0,71.6,83,30.06,10.0,SSE,8.1,-,N/A,,Scattered Clouds,160,2012-12-12 08:38:00
3:53 AM,75.9,72.0,87,30.06,10.0,SSE,6.9,-,N/A,,Clear,150,2012-12-12 08:53:00
4:53 AM,75.9,72.0,87,30.05,10.0,SE,8.1,-,N/A,,Clear,130,2012-12-12 09:53:00
5:53 AM,75.9,71.1,85,30.06,10.0,SE,6.9,-,N/A,,Clear,140,2012-12-12 10:53:00
6:53 AM,75.9,71.1,85,30.08,10.0,SSE,8.1,-,N/A,,Clear,160,2012-12-12 11:53:00
7:53 AM,77.0,71.1,82,30.09,10.0,SSE,8.1,-,N/A,,Clear,150,2012-12-12 12:53:00
8:53 AM,78.1,71.1,79,30.11,10.0,SSE,9.2,-,N/A,,Partly Cloudy,150,2012-12-12 13:53:00
9:07 AM,78.8,71.6,78,30.11,10.0,SSE,11.5,-,N/A,,Mostly Cloudy,150,2012-12-12 14:07:00
9:27 AM,78.8,71.6,78,30.12,10.0,SSE,9.2,-,N/A,,Scattered Clouds,160,2012-12-12 14:27:00
9:53 AM,79.0,70.0,74,30.12,10.0,SSE,12.7,20.7,N/A,,Scattered Clouds,160,2012-12-12 14:53:00
10:53 AM,80.1,71.1,74,30.10,10.0,SE,13.8,-,N/A,,Scattered Clouds,140,2012-12-12 15:53:00
11:53 AM,79.0,70.0,74,30.10,10.0,SSE,11.5,-,N/A,,Partly Cloudy,160,2012-12-12 16:53:00
12:53 PM,82.9,70.0,65,30.06,10.0,South,12.7,19.6,N/A,,Partly Cloudy,170,2012-12-12 17:53:00
1:19 PM,80.6,69.8,70,30.06,10.0,South,11.5,-,N/A,,Mostly Cloudy,170,2012-12-12 18:19:00
1:36 PM,80.6,69.8,70,30.06,10.0,South,16.1,19.6,N/A,,Scattered Clouds,180,2012-12-12 18:36:00
1:53 PM,81.0,68.0,65,30.06,10.0,South,13.8,-,N/A,,Partly Cloudy,170,2012-12-12 18:53:00
2:53 PM,81.0,68.0,65,30.04,10.0,South,11.5,-,N/A,,Clear,170,2012-12-12 19:53:00
3:53 PM,80.1,69.1,69,30.05,10.0,South,11.5,-,N/A,,Partly Cloudy,180,2012-12-12 20:53:00
4:53 PM,79.0,69.1,72,30.06,10.0,South,5.8,-,N/A,,Clear,180,2012-12-12 21:53:00
5:53 PM,78.1,69.1,74,30.08,10.0,South,6.9,-,N/A,,Scattered Clouds,170,2012-12-12 22:53:00
6:53 PM,77.0,70.0,79,30.09,10.0,SSE,4.6,-,N/A,,Scattered Clouds,160,2012-12-12 23:53:00
7:53 PM,75.9,70.0,82,30.09,10.0,SSE,5.8,-,N/A,,Clear,150,2012-12-13 00:53:00
8:53 PM,75.9,71.1,85,30.10,10.0,South,3.5,-,N/A,,Clear,170,2012-12-13 01:53:00
9:53 PM,75.0,70.0,84,30.09,10.0,Calm,Calm,-,N/A,,Clear,0,2012-12-13 02:53:00
10:53 PM,73.9,70.0,87,30.10,10.0,Calm,Calm,-,N/A,,Clear,0,2012-12-13 03:53:00
11:53 PM,73.0,70.0,90,30.08,10.0,Calm,Calm,-,N/A,,Clear,0,2012-12-13 04:53:00